Time,TemperatureF,DewpointF,PressureIn,WindDirection,WindDirectionDegrees,WindSpeedMPH,WindSpeedGustMPH,Humidity,HourlyPrecipIn,Conditions,Clouds,dailyrainin,SolarRadiationWatts/m^2,SoftwareType,DateUTC
2013-05-31 00:00:00,52.8,48.4,30.07,North,352,2.3,2.3,85,0.00,CLR,,0.01,0.0,WeatherDisplay:10.37,2013-05-30 23:00:00,
2013-05-31 00:05:00,52.6,48.2,30.06,North,352,1.2,1.2,85,0.00,RA,,0.00,0.0,WeatherDisplay:10.37,2013-05-30 23:05:00,
2013-05-31 00:10:00,52.3,48.2,30.07,North,354,1.0,1.0,86,0.00,CLR,,0.00,0.0,WeatherDisplay:10.37,2013-05-30 23:10:00,
2013-05-31 00:15:00,52.0,47.9,30.07,SW,226,1.2,1.2,86,0.00,CLR,,0.00,0.0,WeatherDisplay:10.37,2013-05-30 23:15:00,
2013-05-31 00:20:00,51.7,47.6,30.07,WNW,298,3.5,3.5,86,0.00,CLR,,0.00,0.0,WeatherDisplay:10.37,2013-05-30 23:20:00,
2013-05-31 00:25:00,51.4,47.4,30.07,NW,308,2.3,2.3,86,0.00,CLR,,0.00,0.0,WeatherDisplay:10.37,2013-05-30 23:25:00,
2013-05-31 00:31:00,51.1,47.4,30.07,SW,224,3.5,3.5,87,0.00,CLR,,0.00,0.0,WeatherDisplay:10.37,2013-05-30 23:31:00,
2013-05-31 00:36:00,51.0,47.3,30.07,North,357,3.5,3.5,87,0.00,CLR,,0.00,0.0,WeatherDisplay:10.37,2013-05-30 23:36:00,
2013-05-31 00:41:00,50.7,47.0,30.07,WNW,285,0.0,0.0,87,0.00,CLR,,0.00,0.0,WeatherDisplay:10.37,2013-05-30 23:41:00,
2013-05-31 00:46:00,50.5,47.1,30.07,NW,325,4.6,4.6,88,0.00,CLR,,0.00,0.0,WeatherDisplay:10.37,2013-05-30 23:46:00,
2013-05-31 00:51:00,50.4,47.0,30.07,SW,236,2.3,2.3,88,0.00,CLR,,0.00,0.0,WeatherDisplay:10.37,2013-05-30 23:51:00,
2013-05-31 00:56:00,50.1,46.7,30.07,North,353,3.5,3.5,88,0.00,CLR,,0.00,0.0,WeatherDisplay:10.37,2013-05-30 23:56:00,
2013-05-31 01:01:00,49.9,46.5,30.07,WSW,243,4.6,4.6,88,0.00,CLR,,0.00,0.0,WeatherDisplay:10.37,2013-05-31 00:01:00,
2013-05-31 01:07:00,49.8,46.7,30.07,WSW,240,3.5,3.5,89,0.00,CLR,,0.00,0.0,WeatherDisplay:10.37,2013-05-31 00:07:00,
2013-05-31 01:12:00,49.6,46.5,30.07,NW,316,3.5,3.5,89,0.00,CLR,,0.00,0.0,WeatherDisplay:10.37,2013-05-31 00:12:00,
2013-05-31 01:17:00,49.5,46.4,30.07,NW,312,2.3,2.3,89,0.00,CLR,,0.00,0.0,WeatherDisplay:10.37,2013-05-31 00:17:00,
2013-05-31 01:22:00,49.5,46.4,30.07,WNW,299,2.3,2.3,89,0.00,CLR,,0.00,0.0,WeatherDisplay:10.37,2013-05-31 00:22:00,
2013-05-31 01:27:00,49.4,46.6,30.08,North,349,2.3,2.3,90,0.00,CLR,,0.00,0.0,WeatherDisplay:10.37,2013-05-31 00:27:00,
2013-05-31 01:32:00,49.4,46.6,30.08,North,350,1.0,1.0,90,0.00,CLR,,0.00,0.0,WeatherDisplay:10.37,2013-05-31 00:32:00,
2013-05-31 01:37:00,49.2,46.4,30.07,SW,233,1.2,1.2,90,0.00,CLR,,0.00,0.0,WeatherDisplay:10.37,2013-05-31 00:37:00,
2013-05-31 01:42:00,49.2,46.4,30.08,WNW,285,3.5,3.5,90,0.00,CLR,,0.00,0.0,WeatherDisplay:10.37,2013-05-31 00:42:00,
2013-05-31 01:47:00,49.2,46.4,30.08,NW,311,2.3,2.3,90,0.00,CLR,,0.00,0.0,WeatherDisplay:10.37,2013-05-31 00:47:00,
2013-05-31 01:53:00,48.9,46.4,30.08,NNW,344,5.8,5.8,91,0.00,CLR,,0.00,0.0,WeatherDisplay:10.37,2013-05-31 00:53:00,
2013-05-31 01:58:00,48.8,46.3,30.07,WNW,295,2.3,2.3,91,0.00,CLR,,0.00,0.0,WeatherDisplay:10.37,2013-05-31 00:58:00,
2013-05-31 02:03:00,48.8,46.3,30.07,SW,220,0.0,0.0,91,0.00,CLR,,0.00,0.0,WeatherDisplay:10.37,2013-05-31 01:03:00,
2013-05-31 02:08:00,48.6,46.1,30.07,SW,227,2.3,2.3,91,0.00,CLR,,0.00,0.0,WeatherDisplay:10.37,2013-05-31 01:08:00,
2013-05-31 02:13:00,48.5,46.3,30.07,NW,315,2.3,2.3,92,0.00,CLR,,0.00,0.0,WeatherDisplay:10.37,2013-05-31 01:13:00,
2013-05-31 02:18:00,48.5,46.3,30.07,NW,305,2.3,2.3,92,0.00,CLR,,0.00,0.0,WeatherDisplay:10.37,2013-05-31 01:18:00,
2013-05-31 02:23:00,48.3,46.1,30.08,WNW,295,0.0,0.0,92,0.00,CLR,,0.00,0.0,WeatherDisplay:10.37,2013-05-31 01:23:00,
2013-05-31 02:29:00,48.3,46.1,30.08,WNW,299,3.5,3.5,92,0.00,CLR,,0.00,0.0,WeatherDisplay:10.37,2013-05-31 01:29:00,
2013-05-31 02:34:00,48.2,46.0,30.07,WNW,296,2.3,2.3,92,0.00,CLR,,0.00,0.0,WeatherDisplay:10.37,2013-05-31 01:34:00,
2013-05-31 02:39:00,48.2,46.0,30.07,WNW,299,0.0,0.0,92,0.00,CLR,,0.00,0.0,WeatherDisplay:10.37,2013-05-31 01:39:00,
2013-05-31 02:44:00,48.0,45.8,30.07,WNW,298,3.5,3.5,92,0.00,CLR,,0.00,0.0,WeatherDisplay:10.37,2013-05-31 01:44:00,
2013-05-31 02:49:00,47.9,45.7,30.07,WNW,296,3.0,3.0,92,0.00,CLR,,0.00,0.0,WeatherDisplay:10.37,2013-05-31 01:49:00,
2013-05-31 02:54:00,47.9,45.7,30.07,WNW,298,0.0,0.0,92,0.00,CLR,,0.00,0.0,WeatherDisplay:10.37,2013-05-31 01:54:00,
2013-05-31 03:00:00,47.7,45.8,30.07,WNW,299,1.0,1.0,93,0.00,CLR,,0.00,0.0,WeatherDisplay:10.37,2013-05-31 02:00:00,
2013-05-31 03:05:00,47.7,45.8,30.08,WNW,296,2.3,0.0,93,0.00,CLR,,0.00,0.0,WeatherDisplay:10.37,2013-05-31 02:05:00,
2013-05-31 03:10:00,47.6,45.7,30.08,WNW,298,3.5,3.5,93,0.00,CLR,,0.00,0.0,WeatherDisplay:10.37,2013-05-31 02:10:00,
2013-05-31 03:15:00,47.4,45.5,30.08,West,277,0.0,3.0,93,0.00,CLR,,0.00,0.0,WeatherDisplay:10.37,2013-05-31 02:15:00,
2013-05-31 03:20:00,47.4,45.5,30.07,WSW,240,1.2,1.2,93,0.00,CLR,,0.00,0.0,WeatherDisplay:10.37,2013-05-31 02:20:00,
2013-05-31 03:25:00,47.4,45.5,30.08,NW,316,0.0,0.0,93,0.00,CLR,,0.00,0.0,WeatherDisplay:10.37,2013-05-31 02:25:00,
2013-05-31 03:30:00,47.4,45.5,30.08,NW,308,2.3,2.3,93,0.00,CLR,,0.00,0.0,WeatherDisplay:10.37,2013-05-31 02:30:00,
2013-05-31 03:36:00,47.3,45.4,30.08,NNW,336,2.3,2.3,93,0.00,CLR,,0.00,0.0,WeatherDisplay:10.37,2013-05-31 02:36:00,
2013-05-31 03:41:00,47.1,45.2,30.08,SW,234,2.3,2.3,93,0.00,CLR,,0.00,0.0,WeatherDisplay:10.37,2013-05-31 02:41:00,
2013-05-31 03:46:00,47.0,45.1,30.08,SW,226,0.0,0.0,93,0.00,CLR,,0.00,0.0,WeatherDisplay:10.37,2013-05-31 02:46:00,
2013-05-31 03:51:00,46.8,45.2,30.08,WSW,241,2.3,2.3,94,0.00,CLR,,0.00,0.0,WeatherDisplay:10.37,2013-05-31 02:51:00,
2013-05-31 03:57:00,46.8,45.2,30.08,NW,309,2.3,2.3,94,0.00,CLR,,0.00,0.0,WeatherDisplay:10.37,2013-05-31 02:57:00,
2013-05-31 04:02:00,46.7,45.1,30.08,North,350,3.5,3.5,94,0.00,CLR,,0.00,0.0,WeatherDisplay:10.37,2013-05-31 03:02:00,
2013-05-31 04:07:00,46.7,45.1,30.08,WSW,243,1.2,1.2,94,0.00,CLR,,0.00,0.0,WeatherDisplay:10.37,2013-05-31 03:07:00,
2013-05-31 04:12:00,46.7,45.1,30.08,WSW,243,2.3,2.3,94,0.00,OVC,,0.00,0.0,WeatherDisplay:10.37,2013-05-31 03:12:00,
2013-05-31 04:17:00,46.5,44.9,30.07,WNW,294,2.3,2.3,94,0.00,OVC,,0.00,0.0,WeatherDisplay:10.37,2013-05-31 03:17:00,
2013-05-31 04:22:00,46.5,44.9,30.07,NW,306,2.3,2.3,94,0.00,OVC,,0.00,0.0,WeatherDisplay:10.37,2013-05-31 03:22:00,
2013-05-31 04:28:00,46.4,44.8,30.07,NW,313,2.0,2.0,94,0.00,OVC,,0.00,0.0,WeatherDisplay:10.37,2013-05-31 03:28:00,
2013-05-31 04:33:00,46.5,45.1,30.08,SW,234,1.0,1.0,95,0.00,OVC,,0.00,5.0,WeatherDisplay:10.37,2013-05-31 03:33:00,
2013-05-31 04:38:00,46.5,44.9,30.08,SW,227,0.0,0.0,94,0.00,OVC,,0.00,5.0,WeatherDisplay:10.37,2013-05-31 03:38:00,
2013-05-31 04:43:00,46.4,44.8,30.08,North,356,1.2,1.2,94,0.00,OVC,,0.00,7.0,WeatherDisplay:10.37,2013-05-31 03:43:00,
2013-05-31 04:48:00,46.2,44.8,30.07,North,0,2.3,2.3,95,0.00,OVC,,0.00,9.0,WeatherDisplay:10.37,2013-05-31 03:48:00,
2013-05-31 04:53:00,46.2,44.8,30.07,North,0,0.0,0.0,95,0.00,OVC,,0.00,12.0,WeatherDisplay:10.37,2013-05-31 03:53:00,
2013-05-31 04:59:00,46.2,44.8,30.07,North,0,0.0,0.0,95,0.00,OVC,,0.00,14.0,WeatherDisplay:10.37,2013-05-31 03:59:00,
2013-05-31 05:01:00,46.2,44.8,30.07,North,356,1.2,1.2,95,0.00,OVC,,0.00,14.0,WeatherDisplay:10.37,2013-05-31 04:01:00,
2013-05-31 05:07:00,46.1,44.7,30.07,WNW,292,2.3,2.3,95,0.00,OVC,,0.00,18.0,WeatherDisplay:10.37,2013-05-31 04:07:00,
2013-05-31 05:08:00,46.1,44.7,30.08,NW,304,3.5,3.5,95,0.00,OVC,,0.00,18.0,WeatherDisplay:10.37,2013-05-31 04:08:00,
2013-05-31 05:13:00,46.1,44.7,30.07,WSW,241,1.0,1.0,95,0.00,OVC,,0.00,21.0,WeatherDisplay:10.37,2013-05-31 04:13:00,
2013-05-31 05:18:00,46.0,44.6,30.07,North,349,3.5,3.5,95,0.00,OVC,,0.00,25.0,WeatherDisplay:10.37,2013-05-31 04:18:00,
2013-05-31 05:23:00,46.0,44.6,30.07,WSW,239,2.3,2.3,95,0.00,CLR,,0.00,25.0,WeatherDisplay:10.37,2013-05-31 04:23:00,
2013-05-31 05:28:00,46.0,44.6,30.08,North,357,2.3,0.0,95,0.00,CLR,,0.00,26.0,WeatherDisplay:10.37,2013-05-31 04:28:00,
2013-05-31 05:33:00,46.0,44.6,30.08,SW,226,1.2,1.2,95,0.00,CLR,,0.00,30.0,WeatherDisplay:10.37,2013-05-31 04:33:00,
2013-05-31 05:38:00,46.1,45.0,30.08,WSW,239,2.3,2.3,96,0.00,CLR,,0.00,33.0,WeatherDisplay:10.37,2013-05-31 04:38:00,
2013-05-31 05:43:00,46.1,45.0,30.08,SW,224,1.0,1.0,96,0.00,CLR,,0.00,39.0,WeatherDisplay:10.37,2013-05-31 04:43:00,
2013-05-31 05:49:00,46.2,45.1,30.08,North,349,3.5,3.5,96,0.00,CLR,,0.00,40.0,WeatherDisplay:10.37,2013-05-31 04:49:00,
2013-05-31 05:54:00,46.4,45.3,30.08,North,349,4.6,4.6,96,0.00,FEW,,0.00,39.0,WeatherDisplay:10.37,2013-05-31 04:54:00,
2013-05-31 05:59:00,46.7,45.6,30.08,NW,316,4.6,4.6,96,0.00,SCT,,0.00,37.0,WeatherDisplay:10.37,2013-05-31 04:59:00,
2013-05-31 06:04:00,47.0,45.9,30.08,NW,320,3.5,3.5,96,0.00,SCT,,0.00,39.0,WeatherDisplay:10.37,2013-05-31 05:04:00,
2013-05-31 06:10:00,47.1,46.0,30.08,WSW,240,5.0,5.0,96,0.00,SCT,,0.00,44.0,WeatherDisplay:10.37,2013-05-31 05:10:00,
2013-05-31 06:15:00,47.3,45.9,30.08,WSW,241,10.4,10.4,95,0.00,SCT,,0.00,44.0,WeatherDisplay:10.37,2013-05-31 05:15:00,
2013-05-31 06:20:00,47.4,46.0,30.08,SW,233,4.6,4.6,95,0.00,SCT,,0.00,48.0,WeatherDisplay:10.37,2013-05-31 05:20:00,
2013-05-31 06:25:00,47.6,46.0,30.08,North,352,3.5,3.5,94,0.00,BKN,,0.00,49.0,WeatherDisplay:10.37,2013-05-31 05:25:00,
2013-05-31 06:30:00,47.9,46.3,30.08,WNW,292,5.8,5.8,94,0.00,CLR,,0.00,157.0,WeatherDisplay:10.37,2013-05-31 05:30:00,
2013-05-31 06:35:00,48.0,46.4,30.08,SW,233,2.3,2.3,94,0.00,CLR,,0.00,162.0,WeatherDisplay:10.37,2013-05-31 05:35:00,
2013-05-31 06:40:00,48.3,46.4,30.08,SW,233,3.5,3.5,93,0.00,CLR,,0.00,172.0,WeatherDisplay:10.37,2013-05-31 05:40:00,
2013-05-31 06:45:00,48.5,46.6,30.08,NNW,340,3.5,3.5,93,0.00,CLR,,0.00,185.0,WeatherDisplay:10.37,2013-05-31 05:45:00,
2013-05-31 06:50:00,48.8,46.6,30.08,WNW,294,8.1,8.1,92,0.00,CLR,,0.00,194.0,WeatherDisplay:10.37,2013-05-31 05:50:00,
2013-05-31 06:56:00,48.9,46.4,30.09,NNW,347,8.1,8.1,91,0.00,CLR,,0.00,208.0,WeatherDisplay:10.37,2013-05-31 05:56:00,
2013-05-31 07:01:00,49.2,46.4,30.09,NW,309,1.2,0.0,90,0.00,CLR,,0.00,223.0,WeatherDisplay:10.37,2013-05-31 06:01:00,
2013-05-31 07:06:00,49.5,46.7,30.09,North,353,3.5,3.5,90,0.00,CLR,,0.00,239.0,WeatherDisplay:10.37,2013-05-31 06:06:00,
2013-05-31 07:11:00,49.8,46.7,30.09,North,352,4.6,4.6,89,0.00,CLR,,0.00,260.0,WeatherDisplay:10.37,2013-05-31 06:11:00,
2013-05-31 07:16:00,50.1,47.0,30.09,North,350,3.5,3.5,89,0.00,CLR,,0.00,292.0,WeatherDisplay:10.37,2013-05-31 06:16:00,
2013-05-31 07:21:00,50.4,47.3,30.09,NNW,346,3.5,3.5,89,0.00,CLR,,0.00,338.0,WeatherDisplay:10.37,2013-05-31 06:21:00,
2013-05-31 07:26:00,51.1,47.1,30.09,WNW,287,5.0,5.0,86,0.00,CLR,,0.00,392.0,WeatherDisplay:10.37,2013-05-31 06:26:00,
2013-05-31 07:31:00,51.7,47.3,30.09,WNW,296,2.3,2.3,85,0.00,CLR,,0.00,412.0,WeatherDisplay:10.37,2013-05-31 06:31:00,
2013-05-31 07:36:00,52.5,47.5,30.09,North,352,5.8,5.8,83,0.00,CLR,,0.00,341.0,WeatherDisplay:10.37,2013-05-31 06:36:00,
2013-05-31 07:41:00,53.2,47.8,30.09,WSW,239,5.8,5.8,82,0.00,CLR,,0.00,350.0,WeatherDisplay:10.37,2013-05-31 06:41:00,
2013-05-31 07:46:00,53.3,47.6,30.09,SW,227,4.6,0.0,81,0.00,FEW,,0.00,218.0,WeatherDisplay:10.37,2013-05-31 06:46:00,
2013-05-31 07:51:00,53.9,47.9,30.09,North,352,4.6,4.6,80,0.00,CLR,,0.00,355.0,WeatherDisplay:10.37,2013-05-31 06:51:00,
2013-05-31 07:57:00,54.2,46.8,30.09,North,353,1.2,0.0,76,0.00,SCT,,0.00,187.0,WeatherDisplay:10.37,2013-05-31 06:57:00,
2013-05-31 08:02:00,53.9,46.2,30.09,NW,323,3.5,3.5,75,0.00,SCT,,0.00,167.0,WeatherDisplay:10.37,2013-05-31 07:02:00,
2013-05-31 08:07:00,53.5,46.5,30.09,North,356,3.5,3.5,77,0.00,SCT,,0.00,171.0,WeatherDisplay:10.37,2013-05-31 07:07:00,
2013-05-31 08:12:00,53.5,46.8,30.09,North,0,4.6,4.6,78,0.00,SCT,,0.00,229.0,WeatherDisplay:10.37,2013-05-31 07:12:00,
2013-05-31 08:17:00,53.5,47.5,30.09,North,354,0.0,0.0,80,0.00,CLR,,0.00,310.0,WeatherDisplay:10.37,2013-05-31 07:17:00,
2013-05-31 08:22:00,53.9,48.2,30.09,North,359,3.5,3.5,81,0.00,SCT,,0.00,238.0,WeatherDisplay:10.37,2013-05-31 07:22:00,
2013-05-31 08:27:00,53.8,47.4,30.10,NW,326,4.6,0.0,79,0.00,BKN,,0.00,185.0,WeatherDisplay:10.37,2013-05-31 07:27:00,
2013-05-31 08:33:00,54.1,47.7,30.10,North,353,8.0,8.0,79,0.00,CLR,,0.00,287.0,WeatherDisplay:10.37,2013-05-31 07:33:00,
2013-05-31 08:38:00,54.1,47.4,30.09,SW,220,5.8,5.8,78,0.00,FEW,,0.00,412.0,WeatherDisplay:10.37,2013-05-31 07:38:00,
2013-05-31 08:43:00,54.4,47.7,30.09,North,356,4.6,4.6,78,0.00,BKN,,0.00,215.0,WeatherDisplay:10.37,2013-05-31 07:43:00,
2013-05-31 08:48:00,54.2,47.5,30.09,North,356,5.8,5.8,78,0.00,BKN,,0.00,209.0,WeatherDisplay:10.37,2013-05-31 07:48:00,
2013-05-31 08:53:00,54.1,48.1,30.10,WSW,240,5.8,5.8,80,0.00,BKN,,0.00,213.0,WeatherDisplay:10.37,2013-05-31 07:53:00,
2013-05-31 08:58:00,54.1,48.1,30.09,WNW,292,5.8,5.8,80,0.00,BKN,,0.00,211.0,WeatherDisplay:10.37,2013-05-31 07:58:00,
2013-05-31 09:04:00,54.1,48.1,30.10,North,354,2.3,2.6,80,0.00,SCT,,0.00,320.0,WeatherDisplay:10.37,2013-05-31 08:04:00,
2013-05-31 09:09:00,54.4,48.4,30.10,WNW,291,6.0,6.0,80,0.00,BKN,,0.00,209.0,WeatherDisplay:10.37,2013-05-31 08:09:00,
2013-05-31 09:14:00,54.8,48.7,30.10,NW,313,5.8,5.8,80,0.00,SCT,,0.00,264.0,WeatherDisplay:10.37,2013-05-31 08:14:00,
2013-05-31 09:19:00,55.6,49.5,30.10,WNW,295,3.5,3.5,80,0.00,BKN,,0.00,264.0,WeatherDisplay:10.37,2013-05-31 08:19:00,
2013-05-31 09:24:00,56.6,50.5,30.10,SW,236,6.0,6.0,80,0.00,SCT,,0.00,728.0,WeatherDisplay:10.37,2013-05-31 08:24:00,
2013-05-31 09:29:00,57.8,51.0,30.10,NW,322,6.9,6.9,78,0.00,CLR,,0.00,572.0,WeatherDisplay:10.37,2013-05-31 08:29:00,
2013-05-31 09:34:00,58.0,51.2,30.10,North,0,4.6,4.6,78,0.00,SCT,,0.00,320.0,WeatherDisplay:10.37,2013-05-31 08:34:00,
2013-05-31 09:40:00,57.5,51.0,30.10,NW,315,4.6,4.6,79,0.00,BKN,,0.00,202.0,WeatherDisplay:10.37,2013-05-31 08:40:00,
2013-05-31 09:45:00,57.0,51.2,30.10,North,353,6.0,6.0,81,0.00,BKN,,0.00,299.0,WeatherDisplay:10.37,2013-05-31 08:45:00,
2013-05-31 09:50:00,56.7,51.3,30.10,SW,227,3.5,3.5,82,0.00,BKN,,0.00,248.0,WeatherDisplay:10.37,2013-05-31 08:50:00,
2013-05-31 09:55:00,56.9,51.5,30.10,North,354,3.5,3.5,82,0.00,BKN,,0.00,230.0,WeatherDisplay:10.37,2013-05-31 08:55:00,
2013-05-31 10:00:00,56.7,51.3,30.10,North,353,5.8,5.8,82,0.00,OVC,,0.00,211.0,WeatherDisplay:10.37,2013-05-31 09:00:00,
2013-05-31 10:06:00,56.7,51.6,30.10,North,354,5.8,5.8,83,0.00,OVC,,0.00,222.0,WeatherDisplay:10.37,2013-05-31 09:06:00,
2013-05-31 10:11:00,56.9,52.1,30.10,SW,236,11.5,11.5,84,0.00,BKN,,0.00,347.0,WeatherDisplay:10.37,2013-05-31 09:11:00,
2013-05-31 10:16:00,57.5,52.7,30.10,SE,124,5.8,5.8,84,0.00,SCT,,0.00,355.0,WeatherDisplay:10.37,2013-05-31 09:16:00,
2013-05-31 10:21:00,58.0,52.9,30.10,North,0,5.8,5.8,83,0.00,SCT,,0.00,494.0,WeatherDisplay:10.37,2013-05-31 09:21:00,
2013-05-31 10:26:00,58.1,53.0,30.10,North,350,6.0,6.0,83,0.00,SCT,,0.00,399.0,WeatherDisplay:10.37,2013-05-31 09:26:00,
2013-05-31 10:31:00,57.5,52.4,30.10,SSW,199,8.1,8.1,83,0.00,SCT,,0.00,391.0,WeatherDisplay:10.37,2013-05-31 09:31:00,
2013-05-31 10:37:00,57.6,52.8,30.10,NNW,346,4.6,4.6,84,0.00,SCT,,0.00,442.0,WeatherDisplay:10.37,2013-05-31 09:37:00,
2013-05-31 10:42:00,58.1,53.0,30.10,NNW,332,11.5,11.5,83,0.00,FEW,,0.00,547.0,WeatherDisplay:10.37,2013-05-31 09:42:00,
2013-05-31 10:47:00,58.1,52.6,30.10,North,354,5.0,5.0,82,0.00,BKN,,0.00,380.0,WeatherDisplay:10.37,2013-05-31 09:47:00,
2013-05-31 10:52:00,58.0,52.9,30.10,NNW,343,3.5,3.5,83,0.00,BKN,,0.00,308.0,WeatherDisplay:10.37,2013-05-31 09:52:00,
2013-05-31 10:57:00,58.0,53.2,30.10,NNW,347,7.0,7.0,84,0.00,SCT,,0.00,419.0,WeatherDisplay:10.37,2013-05-31 09:57:00,
2013-05-31 11:02:00,57.8,53.3,30.10,North,352,7.0,7.0,85,0.00,SCT,,0.00,565.0,WeatherDisplay:10.37,2013-05-31 10:02:00,
2013-05-31 11:07:00,58.3,53.5,30.10,North,349,5.8,5.8,84,0.00,FEW,,0.00,589.0,WeatherDisplay:10.37,2013-05-31 10:07:00,
2013-05-31 11:12:00,58.1,53.0,30.10,WSW,240,8.1,8.1,83,0.00,SCT,,0.00,480.0,WeatherDisplay:10.37,2013-05-31 10:12:00,
2013-05-31 11:17:00,58.1,53.3,30.10,North,352,10.4,10.4,84,0.00,SCT,,0.00,552.0,WeatherDisplay:10.37,2013-05-31 10:17:00,
2013-05-31 11:22:00,57.8,52.7,30.11,West,265,6.9,6.9,83,0.00,BKN,,0.00,311.0,WeatherDisplay:10.37,2013-05-31 10:22:00,
2013-05-31 11:27:00,57.3,52.2,30.11,North,0,5.8,5.8,83,0.00,OVC,,0.00,248.0,WeatherDisplay:10.37,2013-05-31 10:27:00,
2013-05-31 11:33:00,57.0,52.5,30.11,North,359,5.8,5.8,85,0.00,BKN,,0.00,354.0,WeatherDisplay:10.37,2013-05-31 10:33:00,
2013-05-31 11:38:00,57.3,52.5,30.11,NNW,333,6.9,6.9,84,0.00,SCT,,0.00,459.0,WeatherDisplay:10.37,2013-05-31 10:38:00,
2013-05-31 11:43:00,57.2,52.7,30.11,North,0,4.6,4.6,85,0.00,BKN,,0.00,370.0,WeatherDisplay:10.37,2013-05-31 10:43:00,
2013-05-31 11:48:00,56.7,52.6,30.11,North,352,5.8,5.8,86,0.00,SCT,,0.00,505.0,WeatherDisplay:10.37,2013-05-31 10:48:00,
2013-05-31 11:53:00,56.9,53.1,30.11,NW,319,3.5,3.5,87,0.00,OVC,,0.00,285.0,WeatherDisplay:10.37,2013-05-31 10:53:00,
2013-05-31 11:58:00,56.5,52.4,30.11,NNW,335,11.5,11.5,86,0.00,OVC,,0.00,259.0,WeatherDisplay:10.37,2013-05-31 10:58:00,
2013-05-31 12:03:00,56.3,52.5,30.11,North,0,6.9,6.9,87,0.00,OVC,,0.00,274.0,WeatherDisplay:10.37,2013-05-31 11:03:00,
2013-05-31 12:08:00,56.5,53.0,30.11,North,356,8.1,8.1,88,0.00,SCT,,0.00,530.0,WeatherDisplay:10.37,2013-05-31 11:08:00,
2013-05-31 12:13:00,57.2,53.4,30.10,NW,316,7.0,7.0,87,0.00,BKN,,0.00,547.0,WeatherDisplay:10.37,2013-05-31 11:13:00,
2013-05-31 12:18:00,57.2,53.0,30.11,West,280,6.0,6.0,86,0.00,SCT,,0.00,480.0,WeatherDisplay:10.37,2013-05-31 11:18:00,
2013-05-31 12:24:00,57.5,53.3,30.11,North,0,6.9,6.9,86,0.00,BKN,,0.00,480.0,WeatherDisplay:10.37,2013-05-31 11:24:00,
2013-05-31 12:29:00,58.1,53.9,30.11,North,349,6.9,6.9,86,0.00,BKN,,0.00,456.0,WeatherDisplay:10.37,2013-05-31 11:29:00,
2013-05-31 12:34:00,59.2,54.0,30.11,SW,226,8.1,8.1,83,0.00,SCT,,0.00,676.0,WeatherDisplay:10.37,2013-05-31 11:34:00,
2013-05-31 12:39:00,59.9,54.1,30.11,NNW,336,10.4,10.4,81,0.00,SCT,,0.00,572.0,WeatherDisplay:10.37,2013-05-31 11:39:00,
2013-05-31 12:44:00,59.5,53.3,30.11,SW,227,6.9,6.9,80,0.00,BKN,,0.00,431.0,WeatherDisplay:10.37,2013-05-31 11:44:00,
2013-05-31 12:49:00,59.2,53.4,30.11,NW,322,5.8,5.8,81,0.00,OVC,,0.00,317.0,WeatherDisplay:10.37,2013-05-31 11:49:00,
2013-05-31 12:54:00,58.4,52.9,30.11,SW,217,5.8,5.8,82,0.00,OVC,,0.00,255.0,WeatherDisplay:10.37,2013-05-31 11:54:00,
2013-05-31 12:59:00,58.0,52.9,30.12,North,349,5.0,5.0,83,0.00,OVC,,0.00,246.0,WeatherDisplay:10.37,2013-05-31 11:59:00,
2013-05-31 13:04:00,57.5,52.4,30.12,NW,323,10.4,10.4,83,0.00,OVC,,0.00,255.0,WeatherDisplay:10.37,2013-05-31 12:04:00,
2013-05-31 13:10:00,56.7,52.2,30.12,NNW,335,10.4,10.4,85,0.00,OVC,,0.00,232.0,WeatherDisplay:10.37,2013-05-31 12:10:00,
2013-05-31 13:15:00,56.3,52.5,30.12,NW,320,8.1,8.1,87,0.00,OVC,,0.00,225.0,WeatherDisplay:10.37,2013-05-31 12:15:00,
2013-05-31 13:20:00,56.3,53.1,30.12,NNW,339,8.1,8.1,89,0.00,OVC,,0.00,223.0,WeatherDisplay:10.37,2013-05-31 12:20:00,
2013-05-31 13:25:00,56.2,53.0,30.12,NNW,342,8.1,8.1,89,0.00,OVC,,0.00,213.0,WeatherDisplay:10.37,2013-05-31 12:25:00,
2013-05-31 13:30:00,56.2,53.3,30.12,NW,325,5.0,5.0,90,0.00,OVC,,0.00,185.0,WeatherDisplay:10.37,2013-05-31 12:30:00,
2013-05-31 13:35:00,56.0,53.4,30.12,NNW,330,6.9,6.9,91,0.00,OVC,,0.00,157.0,WeatherDisplay:10.37,2013-05-31 12:35:00,
2013-05-31 13:40:00,55.7,53.1,30.12,NNW,332,4.6,4.6,91,0.00,OVC,,0.00,188.0,WeatherDisplay:10.37,2013-05-31 12:40:00,
2013-05-31 13:45:00,55.6,53.0,30.12,North,350,5.8,5.8,91,0.00,OVC,,0.00,208.0,WeatherDisplay:10.37,2013-05-31 12:45:00,
2013-05-31 13:50:00,55.6,53.0,30.12,SW,234,3.5,3.5,91,0.00,OVC,,0.00,334.0,WeatherDisplay:10.37,2013-05-31 12:50:00,
2013-05-31 13:56:00,55.9,53.0,30.12,NNW,344,4.6,4.6,90,0.00,OVC,,0.00,327.0,WeatherDisplay:10.37,2013-05-31 12:56:00,
2013-05-31 14:01:00,56.2,53.3,30.12,NNW,336,6.9,6.9,90,0.00,OVC,,0.00,317.0,WeatherDisplay:10.37,2013-05-31 13:01:00,
2013-05-31 14:06:00,56.6,53.7,30.12,NNW,347,3.0,3.1,90,0.00,OVC,,0.00,326.0,WeatherDisplay:10.37,2013-05-31 13:06:00,
2013-05-31 14:11:00,57.0,53.5,30.12,North,353,8.0,8.0,88,0.00,SCT,,0.00,567.0,WeatherDisplay:10.37,2013-05-31 13:11:00,
2013-05-31 14:16:00,57.8,53.6,30.12,NNW,335,5.0,5.0,86,0.00,BKN,,0.00,410.0,WeatherDisplay:10.37,2013-05-31 13:16:00,
2013-05-31 14:21:00,58.0,53.2,30.12,NW,318,4.6,4.6,84,0.00,OVC,,0.00,209.0,WeatherDisplay:10.37,2013-05-31 13:21:00,
2013-05-31 14:26:00,58.0,53.5,30.12,NW,318,5.0,5.0,85,0.00,OVC,,0.00,333.0,WeatherDisplay:10.37,2013-05-31 13:26:00,
2013-05-31 14:31:00,57.8,53.3,30.12,NNW,336,5.8,5.8,85,0.00,OVC,,0.00,315.0,WeatherDisplay:10.37,2013-05-31 13:31:00,
2013-05-31 14:36:00,57.6,53.1,30.12,NNW,337,6.9,6.9,85,0.00,OVC,,0.00,326.0,WeatherDisplay:10.37,2013-05-31 13:36:00,
2013-05-31 14:41:00,57.5,53.0,30.12,NNW,332,6.9,6.9,85,0.00,BKN,,0.00,343.0,WeatherDisplay:10.37,2013-05-31 13:41:00,
2013-05-31 14:46:00,58.1,53.0,30.12,North,356,11.5,11.5,83,0.00,OVC,,0.00,834.0,WeatherDisplay:10.37,2013-05-31 13:46:00,
2013-05-31 14:52:00,59.0,53.2,30.12,NNW,347,6.9,6.9,81,0.00,FEW,,0.00,343.0,WeatherDisplay:10.37,2013-05-31 13:52:00,
2013-05-31 14:57:00,58.9,53.1,30.12,WSW,241,4.0,4.0,81,0.00,BKN,,0.00,406.0,WeatherDisplay:10.37,2013-05-31 13:57:00,
2013-05-31 15:02:00,58.9,53.1,30.12,NNW,342,5.8,5.8,81,0.00,OVC,,0.00,301.0,WeatherDisplay:10.37,2013-05-31 14:02:00,
2013-05-31 15:07:00,59.6,53.1,30.12,NNW,342,11.5,11.5,79,0.00,SCT,,0.00,648.0,WeatherDisplay:10.37,2013-05-31 14:07:00,
2013-05-31 15:12:00,59.5,52.6,30.12,NNW,333,8.1,8.1,78,0.00,SCT,,0.00,501.0,WeatherDisplay:10.37,2013-05-31 14:12:00,
2013-05-31 15:17:00,59.6,52.4,30.12,NNW,343,17.3,17.3,77,0.00,SCT,,0.00,628.0,WeatherDisplay:10.37,2013-05-31 14:17:00,
2013-05-31 15:22:00,59.8,52.2,30.12,NNW,335,8.0,8.0,76,0.00,SCT,,0.00,544.0,WeatherDisplay:10.37,2013-05-31 14:22:00,
2013-05-31 15:27:00,60.2,51.5,30.12,North,349,12.0,12.0,73,0.00,BKN,,0.00,450.0,WeatherDisplay:10.37,2013-05-31 14:27:00,
2013-05-31 15:32:00,60.7,52.4,30.11,North,349,5.8,5.8,74,0.00,CLR,,0.00,357.0,WeatherDisplay:10.37,2013-05-31 14:32:00,
2013-05-31 15:37:00,60.2,51.5,30.12,NNW,337,7.0,7.0,73,0.00,OVC,,0.00,280.0,WeatherDisplay:10.37,2013-05-31 14:37:00,
2013-05-31 15:43:00,59.3,50.6,30.12,NNW,340,8.1,8.1,73,0.00,BKN,,0.00,371.0,WeatherDisplay:10.37,2013-05-31 14:43:00,
2013-05-31 15:48:00,59.2,50.5,30.12,NNW,339,13.8,13.8,73,0.00,BKN,,0.00,333.0,WeatherDisplay:10.37,2013-05-31 14:48:00,
2013-05-31 15:53:00,59.0,50.4,30.12,NNW,343,11.5,11.5,73,0.00,BKN,,0.00,333.0,WeatherDisplay:10.37,2013-05-31 14:53:00,
2013-05-31 15:58:00,58.9,50.6,30.12,NNW,335,10.4,10.4,74,0.00,BKN,,0.00,320.0,WeatherDisplay:10.37,2013-05-31 14:58:00,
2013-05-31 16:03:00,59.2,50.9,30.12,SW,236,9.2,9.2,74,0.00,FEW,,0.00,626.0,WeatherDisplay:10.37,2013-05-31 15:03:00,
2013-05-31 16:08:00,58.9,49.9,30.12,NNW,336,13.8,13.8,72,0.00,BKN,,0.00,341.0,WeatherDisplay:10.37,2013-05-31 15:08:00,
2013-05-31 16:14:00,58.7,50.1,30.12,NNW,330,12.7,12.7,73,0.00,BKN,,0.00,317.0,WeatherDisplay:10.37,2013-05-31 15:14:00,
2013-05-31 16:19:00,58.7,50.4,30.12,SSW,192,6.9,6.9,74,0.00,BKN,,0.00,303.0,WeatherDisplay:10.37,2013-05-31 15:19:00,
2013-05-31 16:24:00,58.4,49.4,30.12,North,349,11.5,11.5,72,0.00,OVC,,0.00,274.0,WeatherDisplay:10.37,2013-05-31 15:24:00,
2013-05-31 16:29:00,58.0,49.4,30.12,NNW,333,10.4,10.4,73,0.00,OVC,,0.00,234.0,WeatherDisplay:10.37,2013-05-31 15:29:00,
2013-05-31 16:34:00,57.8,49.6,30.12,NNW,346,8.1,8.1,74,0.00,OVC,,0.00,264.0,WeatherDisplay:10.37,2013-05-31 15:34:00,
2013-05-31 16:40:00,57.8,49.6,30.13,NNW,344,11.5,11.5,74,0.00,OVC,,0.00,218.0,WeatherDisplay:10.37,2013-05-31 15:40:00,
2013-05-31 16:45:00,57.6,49.4,30.13,NNW,342,10.4,10.4,74,0.00,OVC,,0.00,213.0,WeatherDisplay:10.37,2013-05-31 15:45:00,
2013-05-31 16:50:00,57.2,48.3,30.13,North,350,10.4,10.4,72,0.00,OVC,,0.00,252.0,WeatherDisplay:10.37,2013-05-31 15:50:00,
2013-05-31 16:55:00,57.2,48.6,30.13,NNW,336,6.9,6.9,73,0.00,BKN,,0.00,341.0,WeatherDisplay:10.37,2013-05-31 15:55:00,
2013-05-31 17:00:00,57.3,49.1,30.12,NNW,337,8.1,8.1,74,0.00,OVC,,0.00,236.0,WeatherDisplay:10.37,2013-05-31 16:00:00,
2013-05-31 17:05:00,57.3,49.1,30.12,North,356,5.8,5.8,74,0.00,OVC,,0.00,208.0,WeatherDisplay:10.37,2013-05-31 16:05:00,
2013-05-31 17:10:00,57.2,47.9,30.12,NNW,328,11.5,11.5,71,0.00,OVC,,0.00,222.0,WeatherDisplay:10.37,2013-05-31 16:10:00,
2013-05-31 17:15:00,57.0,47.7,30.12,NNW,342,11.0,11.0,71,0.00,BKN,,0.00,230.0,WeatherDisplay:10.37,2013-05-31 16:15:00,
2013-05-31 17:21:00,57.0,48.4,30.12,NNW,342,10.4,10.4,73,0.00,OVC,,0.00,209.0,WeatherDisplay:10.37,2013-05-31 16:21:00,
2013-05-31 17:26:00,57.0,48.1,30.12,North,357,10.4,10.4,72,0.00,OVC,,0.00,187.0,WeatherDisplay:10.37,2013-05-31 16:26:00,
2013-05-31 17:31:00,56.7,48.1,30.13,NNW,343,6.9,6.9,73,0.00,OVC,,0.00,185.0,WeatherDisplay:10.37,2013-05-31 16:31:00,
2013-05-31 17:36:00,56.5,47.6,30.13,NNW,340,9.2,9.2,72,0.00,OVC,,0.00,188.0,WeatherDisplay:10.37,2013-05-31 16:36:00,
2013-05-31 17:41:00,56.3,47.0,30.13,NNW,343,14.0,14.0,71,0.00,OVC,,0.00,192.0,WeatherDisplay:10.37,2013-05-31 16:41:00,
2013-05-31 17:46:00,56.5,47.2,30.13,North,352,11.5,11.5,71,0.00,OVC,,0.00,213.0,WeatherDisplay:10.37,2013-05-31 16:46:00,
2013-05-31 17:51:00,56.2,46.9,30.14,NNW,340,11.5,11.5,71,0.00,BKN,,0.00,238.0,WeatherDisplay:10.37,2013-05-31 16:51:00,
2013-05-31 17:56:00,56.0,46.7,30.14,NNW,342,8.1,8.1,71,0.00,BKN,,0.00,215.0,WeatherDisplay:10.37,2013-05-31 16:56:00,
2013-05-31 18:01:00,55.9,45.9,30.14,SSW,193,11.5,11.5,69,0.00,BKN,,0.00,216.0,WeatherDisplay:10.37,2013-05-31 17:01:00,
2013-05-31 18:06:00,55.9,45.9,30.14,NNW,344,5.0,5.0,69,0.00,BKN,,0.00,239.0,WeatherDisplay:10.37,2013-05-31 17:06:00,
2013-05-31 18:12:00,56.0,46.0,30.14,NNW,343,16.1,16.1,69,0.00,BKN,,0.00,236.0,WeatherDisplay:10.37,2013-05-31 17:12:00,
2013-05-31 18:17:00,56.5,46.4,30.14,NNW,347,8.0,8.0,69,0.00,BKN,,0.00,253.0,WeatherDisplay:10.37,2013-05-31 17:17:00,
2013-05-31 18:22:00,56.3,45.5,30.14,NNW,335,12.7,12.7,67,0.00,BKN,,0.00,202.0,WeatherDisplay:10.37,2013-05-31 17:22:00,
2013-05-31 18:27:00,56.0,44.8,30.14,NNW,333,6.9,6.9,66,0.00,OVC,,0.00,157.0,WeatherDisplay:10.37,2013-05-31 17:27:00,
2013-05-31 18:32:00,55.6,44.8,30.14,North,352,10.4,10.4,67,0.00,BKN,,0.00,190.0,WeatherDisplay:10.37,2013-05-31 17:32:00,
2013-05-31 18:37:00,55.7,45.3,30.14,NNW,340,8.1,8.1,68,0.00,BKN,,0.00,164.0,WeatherDisplay:10.37,2013-05-31 17:37:00,
2013-05-31 18:43:00,55.4,44.6,30.15,NNW,343,8.1,8.1,67,0.00,OVC,,0.00,155.0,WeatherDisplay:10.37,2013-05-31 17:43:00,
2013-05-31 18:48:00,55.3,44.9,30.15,NNW,344,5.0,5.0,68,0.00,OVC,,0.00,150.0,WeatherDisplay:10.37,2013-05-31 17:48:00,
2013-05-31 18:53:00,55.1,44.7,30.15,NNW,342,8.1,8.1,68,0.00,BKN,,0.00,172.0,WeatherDisplay:10.37,2013-05-31 17:53:00,
2013-05-31 18:58:00,55.4,44.2,30.15,NNW,346,11.5,11.5,66,0.00,BKN,,0.00,187.0,WeatherDisplay:10.37,2013-05-31 17:58:00,
2013-05-31 19:03:00,55.3,44.1,30.15,NNW,329,10.4,10.4,66,0.00,BKN,,0.00,176.0,WeatherDisplay:10.37,2013-05-31 18:03:00,
2013-05-31 19:08:00,55.4,44.2,30.15,NNW,340,11.5,11.5,66,0.00,SCT,,0.00,215.0,WeatherDisplay:10.37,2013-05-31 18:08:00,
2013-05-31 19:13:00,55.9,43.9,30.15,NNW,344,8.1,8.1,64,0.00,CLR,,0.00,380.0,WeatherDisplay:10.37,2013-05-31 18:13:00,
2013-05-31 19:18:00,55.6,44.0,30.15,North,356,4.6,4.6,65,0.00,BKN,,0.00,137.0,WeatherDisplay:10.37,2013-05-31 18:18:00,
2013-05-31 19:23:00,55.4,43.4,30.15,North,349,11.5,11.5,64,0.00,CLR,,0.00,310.0,WeatherDisplay:10.37,2013-05-31 18:23:00,
2013-05-31 19:28:00,55.7,43.7,30.15,NNW,343,16.1,16.1,64,0.00,CLR,,0.00,280.0,WeatherDisplay:10.37,2013-05-31 18:28:00,
2013-05-31 19:33:00,55.3,43.7,30.15,NNW,339,12.7,12.7,65,0.00,OVC,,0.00,55.0,WeatherDisplay:10.37,2013-05-31 18:33:00,
2013-05-31 19:39:00,54.4,42.9,30.15,NNW,337,8.1,8.1,65,0.00,OVC,,0.00,102.0,WeatherDisplay:10.37,2013-05-31 18:39:00,
2013-05-31 19:44:00,54.4,43.3,30.15,NNW,347,13.8,13.8,66,0.00,CLR,,0.00,269.0,WeatherDisplay:10.37,2013-05-31 18:44:00,
2013-05-31 19:49:00,54.7,43.2,30.15,NW,320,13.8,13.8,65,0.00,FEW,,0.00,223.0,WeatherDisplay:10.37,2013-05-31 18:49:00,
2013-05-31 19:54:00,54.5,42.6,30.15,North,350,11.5,11.5,64,0.00,OVC,,0.00,46.0,WeatherDisplay:10.37,2013-05-31 18:54:00,
2013-05-31 19:59:00,53.9,42.0,30.16,NNW,336,10.4,10.4,64,0.00,OVC,,0.00,44.0,WeatherDisplay:10.37,2013-05-31 18:59:00,
2013-05-31 20:04:00,53.9,42.4,30.16,NNW,347,11.5,11.5,65,0.00,FEW,,0.00,171.0,WeatherDisplay:10.37,2013-05-31 19:04:00,
2013-05-31 20:10:00,54.2,42.3,30.16,NNW,332,10.0,10.0,64,0.00,FEW,,0.00,164.0,WeatherDisplay:10.37,2013-05-31 19:10:00,
2013-05-31 20:15:00,54.4,42.1,30.16,NNW,339,7.0,7.0,63,0.00,FEW,,0.00,165.0,WeatherDisplay:10.37,2013-05-31 19:15:00,
2013-05-31 20:20:00,54.4,42.5,30.16,NNW,335,6.9,6.9,64,0.00,FEW,,0.00,153.0,WeatherDisplay:10.37,2013-05-31 19:20:00,
2013-05-31 20:25:00,54.4,42.5,30.16,NNW,340,12.0,12.0,64,0.00,FEW,,0.00,76.0,WeatherDisplay:10.37,2013-05-31 19:25:00,
2013-05-31 20:30:00,53.9,42.4,30.16,NNW,340,8.1,8.1,65,0.00,BKN,,0.00,86.0,WeatherDisplay:10.37,2013-05-31 19:30:00,
2013-05-31 20:35:00,53.2,42.1,30.16,NNW,336,6.9,6.9,66,0.00,OVC,,0.00,30.0,WeatherDisplay:10.37,2013-05-31 19:35:00,
2013-05-31 20:40:00,52.6,41.9,30.16,NNW,335,4.6,4.6,67,0.00,SCT,,0.00,93.0,WeatherDisplay:10.37,2013-05-31 19:40:00,
2013-05-31 20:46:00,52.3,42.0,30.16,NNW,339,2.3,2.3,68,0.00,SCT,,0.00,76.0,WeatherDisplay:10.37,2013-05-31 19:46:00,
2013-05-31 20:51:00,52.0,42.1,30.17,NW,313,6.9,6.9,69,0.00,OVC,,0.00,25.0,WeatherDisplay:10.37,2013-05-31 19:51:00,
2013-05-31 20:56:00,51.7,41.9,30.17,NNW,340,2.3,2.3,69,0.00,OVC,,0.00,23.0,WeatherDisplay:10.37,2013-05-31 19:56:00,
2013-05-31 21:01:00,51.4,41.9,30.17,NW,311,3.5,3.5,70,0.00,OVC,,0.00,21.0,WeatherDisplay:10.37,2013-05-31 20:01:00,
2013-05-31 21:06:00,51.1,41.7,30.17,NNW,336,6.0,6.0,70,0.00,OVC,,0.00,21.0,WeatherDisplay:10.37,2013-05-31 20:06:00,
2013-05-31 21:11:00,51.0,41.6,30.17,NNW,339,8.1,8.1,70,0.00,OVC,,0.00,19.0,WeatherDisplay:10.37,2013-05-31 20:11:00,
2013-05-31 21:17:00,50.8,41.7,30.17,NNW,344,4.6,4.6,71,0.00,OVC,,0.00,18.0,WeatherDisplay:10.37,2013-05-31 20:17:00,
2013-05-31 21:22:00,50.5,41.8,30.17,NNW,336,2.3,2.3,72,0.00,OVC,,0.00,16.0,WeatherDisplay:10.37,2013-05-31 20:22:00,
2013-05-31 21:27:00,50.4,41.7,30.17,North,354,6.9,6.9,72,0.00,OVC,,0.00,14.0,WeatherDisplay:10.37,2013-05-31 20:27:00,
2013-05-31 21:32:00,50.1,41.8,30.18,NNW,337,5.8,5.8,73,0.00,OVC,,0.00,12.0,WeatherDisplay:10.37,2013-05-31 20:32:00,
2013-05-31 21:37:00,49.9,41.9,30.18,NW,326,2.3,2.3,74,0.00,OVC,,0.00,11.0,WeatherDisplay:10.37,2013-05-31 20:37:00,
2013-05-31 21:42:00,49.8,41.8,30.18,SW,234,3.0,3.0,74,0.00,OVC,,0.00,9.0,WeatherDisplay:10.37,2013-05-31 20:42:00,
2013-05-31 21:47:00,49.6,42.0,30.18,NNW,344,2.3,2.5,75,0.00,OVC,,0.00,7.0,WeatherDisplay:10.37,2013-05-31 20:47:00,
2013-05-31 21:53:00,49.4,42.1,30.18,NNW,332,3.5,3.5,76,0.00,OVC,,0.00,5.0,WeatherDisplay:10.37,2013-05-31 20:53:00,
2013-05-31 21:58:00,49.2,42.3,30.19,NW,325,3.5,3.5,77,0.00,OVC,,0.00,5.0,WeatherDisplay:10.37,2013-05-31 20:58:00,
2013-05-31 22:03:00,48.9,42.0,30.19,NW,315,2.3,2.3,77,0.00,CLR,,0.00,5.0,WeatherDisplay:10.37,2013-05-31 21:03:00,
2013-05-31 22:08:00,48.8,41.9,30.19,NW,312,5.8,5.8,77,0.00,CLR,,0.00,0.0,WeatherDisplay:10.37,2013-05-31 21:08:00,
2013-05-31 22:13:00,48.5,42.0,30.19,NW,311,7.0,7.0,78,0.00,CLR,,0.00,0.0,WeatherDisplay:10.37,2013-05-31 21:13:00,
2013-05-31 22:18:00,48.2,41.7,30.19,NW,316,3.5,3.5,78,0.00,CLR,,0.00,0.0,WeatherDisplay:10.37,2013-05-31 21:18:00,
2013-05-31 22:23:00,48.0,41.8,30.19,NNW,344,5.8,5.8,79,0.00,CLR,,0.00,0.0,WeatherDisplay:10.37,2013-05-31 21:23:00,
2013-05-31 22:28:00,47.7,41.5,30.19,NNW,336,6.9,6.9,79,0.00,CLR,,0.00,0.0,WeatherDisplay:10.37,2013-05-31 21:28:00,
2013-05-31 22:34:00,47.6,41.7,30.19,NNW,330,2.3,2.3,80,0.00,CLR,,0.00,0.0,WeatherDisplay:10.37,2013-05-31 21:34:00,
2013-05-31 22:39:00,47.4,41.5,30.19,WSW,240,3.5,3.5,80,0.00,CLR,,0.00,0.0,WeatherDisplay:10.37,2013-05-31 21:39:00,
2013-05-31 22:44:00,47.3,41.4,30.19,NW,312,5.8,5.8,80,0.00,CLR,,0.00,0.0,WeatherDisplay:10.37,2013-05-31 21:44:00,
2013-05-31 22:49:00,47.1,41.2,30.19,NNW,332,2.3,2.3,80,0.00,CLR,,0.00,0.0,WeatherDisplay:10.37,2013-05-31 21:49:00,
2013-05-31 22:54:00,47.0,41.5,30.19,NNW,332,6.9,6.9,81,0.00,CLR,,0.00,0.0,WeatherDisplay:10.37,2013-05-31 21:54:00,
2013-05-31 22:59:00,47.0,41.5,30.20,NW,323,8.1,8.1,81,0.00,CLR,,0.00,0.0,WeatherDisplay:10.37,2013-05-31 21:59:00,
2013-05-31 23:04:00,47.0,41.8,30.20,SW,234,5.8,5.8,82,0.00,CLR,,0.00,0.0,WeatherDisplay:10.37,2013-05-31 22:04:00,
2013-05-31 23:10:00,47.0,41.8,30.20,NNW,343,3.5,3.5,82,0.00,CLR,,0.00,0.0,WeatherDisplay:10.37,2013-05-31 22:10:00,
2013-05-31 23:15:00,47.0,41.8,30.20,NNW,336,10.0,10.0,82,0.00,CLR,,0.00,0.0,WeatherDisplay:10.37,2013-05-31 22:15:00,
2013-05-31 23:20:00,47.0,41.8,30.20,NNW,339,5.8,5.8,82,0.00,CLR,,0.00,0.0,WeatherDisplay:10.37,2013-05-31 22:20:00,
2013-05-31 23:25:00,46.8,41.6,30.20,NW,309,3.5,3.5,82,0.00,CLR,,0.00,0.0,WeatherDisplay:10.37,2013-05-31 22:25:00,
2013-05-31 23:31:00,46.7,41.5,30.20,NNW,344,2.3,0.0,82,0.00,CLR,,0.00,0.0,WeatherDisplay:10.37,2013-05-31 22:31:00,
2013-05-31 23:36:00,46.7,41.8,30.20,WSW,239,1.2,1.2,83,0.00,CLR,,0.00,0.0,WeatherDisplay:10.37,2013-05-31 22:36:00,
2013-05-31 23:41:00,46.5,41.6,30.20,NNW,337,3.0,3.0,83,0.00,CLR,,0.00,0.0,WeatherDisplay:10.37,2013-05-31 22:41:00,
2013-05-31 23:46:00,46.2,41.3,30.20,North,356,1.2,1.2,83,0.00,CLR,,0.00,0.0,WeatherDisplay:10.37,2013-05-31 22:46:00,
2013-05-31 23:51:00,46.0,41.1,30.20,North,354,1.0,0.0,83,0.00,CLR,,0.00,0.0,WeatherDisplay:10.37,2013-05-31 22:51:00,
2013-05-31 23:56:00,45.8,41.2,30.20,North,354,2.3,2.3,84,0.00,CLR,,0.00,0.0,WeatherDisplay:10.37,2013-05-31 22:56:00,